Погода в Нижнеангарске

Погода в Нижнеангарске : погода сейчас, прогноз погоды и архив. Всё, что Вы хотите узнать о погоде в Нижнеангарске!

Поиск расширенной информации на нашем сайте:

Другие новости

Новости СМИ2

Главная страница сайта

Новости сайта

02.10.2013

Напоминаем, что на нашем новом сайте вы можете получить высокодетализированные прогнозы погоды по пунктам России, СНГ и мира (включающие важные для авиации метеовеличины, такие как направление и скорость ветра, видимость, явления погоды, количество и форма облачности, нижняя и верхняя граница облачности), а также ознакомиться с разнообразными материалами по авиационной метеорологии и подборкой полезных ссылок на эту тему.

Сайт Метеоцентр.Азия посвящён разработке технологий оптимизации авиаметеорологического обслуживания, включая проектирование и перспективное создание нескольких автоматизированных авиаметеорологических систем:
- система выпуска высокодетальных прогностических карт явлений погоды для нижнего воздушного пространства по России и ближнему зарубежью;
- система верификации прогнозов TAF (выпускаемых синоптиками официальных АМСГ РФ и ближнего зарубежья) и AUTOTAF (выпускаемых сайтом Метеоцентр.Азия) - выявление ошибок, онлайн-сопоставление с фактической погодой METAR, автоматическое внесение коррективов в прогнозы при резком отклонении фактической погоды от прогноза, подсчёт оправдываемости прогнозов по элементам и в целом;
- система обработки, анализа и отображения авиаметеорологической информации для применения провайдерами метеорологической информации.


Погода в Нижнеангарске - сегодня

Время (UTC), дата Ветер
(°,м/с) 
Видим.   Явления Облачность Т
(°С)
Тd
(°С)
f(%) Тe
(°С)
Pmin
(гПа)
dP
(гПа)
Po
(мм)
O2
(г/м3)
Тmin Tmax R s Состояние
почвы
21 24.05.17 010 (С) 20000 м    9/0 средняя, верхняя 
[Ac trans|Ci fib]
+2.1 +1.1 93 +3  1008.1  713  285           
00 25.05.17 190 (Ю) 20000 м    10/3 1000 м средняя, верхняя 
[Sc|Ac trans|Ci fib]
+10.4 +5.5 72 +12  1006.9  0.6  713  276  +2        влажная 
03 25.05.17 070 (В) 20000 м    10/3 1000 м средняя, верхняя 
[Sc|Ac trans|Ci fib]
+12.7 +6.1 64 +13  1006.6  0.1  713  274           
06 25.05.17 130 (ЮВ) 20000 м    10/4 1000 м средняя, верхняя 
[Sc|Ac trans|Ci fib]
+16.7 +5 46 +18  1004.6  -1  713  270           
09 25.05.17 180 (Ю) 20000 м    4/3 1000 м верхняя 
[Cu hum|Ci fib]
+18.8 +3.7 37 +20  1001.9  -2.3  711  267           
12 25.05.17 030 (СВ) 20000 м    9/3 1000 м верхняя 
[Sc|Ci fib]
+12.9 +4.8 58 +14  1002.6  -0.4  711  273    +21.5       
15 25.05.17 320 (СЗ) н/о    5/0 верхняя 
[Ci fib]
+14.8 +4 48 +16  1002.4  0.2  711  271           
18 25.05.17 тихо ()   н/о    8/3 1000 м верхняя 
[Sc|Ci fib]
+13.5 +4.2 53 +14  1001.3  -1.3  710  272           
21 25.05.17 080 (В) 20000 м  слаб. ливневой дождь  10/8 1000 м кучево-дожд., средняя, верхняя 
[Cb cap|Ac trans|Ci sp]
+12.1 +6.3 68 +12  1004.6  2.8  712  274           
00 26.05.17 220 (ЮЗ) 20000 м  в посл. час ливневой дождь  10/8 1000 м кучево-дожд., средняя, верхняя 
[Cb cap|Ac trans|Ci sp]
+8.3 +6.8 90 +8  1008.7  3.2  714  278  +8.3      влажная 
03 26.05.17 240 (ЮЗ) 20000 м    10/6 1000 м средняя, верхняя 
[Sc|Ac trans|Ci fib]
+12.6 +9.8 83 +16  1008.4  0.6  715  273  +7.8         
06 26.05.17 180 (Ю) 20000 м    10/3 1000 м средняя, верхняя 
[Sc|Ac trans|Ci fib]
+16.3 +8.6 60 +17  1006.7  -0.9  714  270           
09 26.05.17 180 (Ю) 20000 м    10/3 1000 м средняя, верхняя 
[Sc|Ac trans|Ci fib]
+15.3 +6 54 +16  1006  713  271           
12 26.05.17 240 (ЮЗ) 20000 м    8/0 средняя 
[Ac trans]
+12.8 +5.7 62 +14  1006.5  713  274    +18       
15 26.05.17 220 (ЮЗ) н/о    10/3 1000 м средняя, верхняя 
[Sc|Ac trans|Ci fib]
+8.1 +3 70 +9  1008.2  0.7  714  279           
18 26.05.17 220 (ЮЗ) н/о    10/5 1000 м средняя, верхняя 
[Sc|Ac trans|Ci fib]
+6.7 +2.9 77 +7  1008.2  -0.3  714  280           
21 26.05.17 300 (СЗ) 1{10}  20000 м    9/5 1000 м средняя 
[Sc|Ac trans]
+10.8 +1.3 52 +12  1009.4  1.9  715  277           
00 27.05.17 230 (ЮЗ) 20000 м    8/8 1000 м кучево-дожд. 
[Cb cap]
+10 -2.8 41 +9  1011.6  1.9  717  279  +6.7        влажная 
03 27.05.17 200 (Ю) 4{16}  20000 м    8/6 1000 м кучево-дожд., средняя 
[Cb cap|Ac lent]
+10 -2.5 41 +9  1012.3  0.7  717  279           
06 27.05.17 220 (ЮЗ) 3{17}  20000 м    8/6 1000 м верхняя 
[Sc|Ci fib]
+13.9 -6.3 24 +14  1011.4  -0.2  717  275           
12 27.05.17 220 (ЮЗ) 2{12}  20000 м    8/4 1000 м средняя 
[Sc|Ac cast]
+7.9 -6.8 34 +8  1017.6  2.6  720  283    +14       
15 27.05.17 300 (СЗ) н/о    6/4 1000 м средняя 
[Sc|Ac trans]
+4.3 -4.1 54 +4  1019.5  1.1  721  287           
18 27.05.17 310 (СЗ) н/о  слаб. ливневой дождь  10/10 1000 м кучево-дожд. 
[Cb cap]
+3.8 -0.8 72 +3  1020.2  0.6  722  287           
21 27.05.17 310 (СЗ) 20000 м  в посл. час ливневой дождь  8/8 1000 м кучево-дожд. 
[Cb cap]
+3.6 -1.6 69 +3  1020.4  0.1  722  287           
00 28.05.17 210 (ЮЗ) 20000 м  {ливн. осадки}  9/8 1000 м кучево-дожд., средняя, верхняя 
[Cb cap|Ac trans|Ci fib]
+3.4 +0.2 80 +1  1020.8  0.4  722  287  +3.4    0.0    влажная 
Время (UTC), дата Ветер
(°,м/с) 
Видим.   Явления Облачность Т
(°С)
Тd
(°С)
f(%) Тe
(°С)
Pmin
(гПа)
dP
(гПа)
Po
(мм)
O2
(г/м3)
Тmin Tmax R s Состояние
почвы

Для получения пояснительной информации подведите курсор к названию столбца.

ПОГОДА в Нижнеангарске - архив

Всё, что Вы хотите узнать о погоде в Нижнеангарске - удобно и подробно!

Выберите нужную дату (начиная с 1 января 2015* года) и нажмите кнопку "Найти".
Будут отображены архивные сводки погоды по пункту Нижнеангарск, начиная с указанной даты.


Отображать данные в формате CSV (для использования в таблицах Excel)


Внимание! Наш архив погоды предназначен исключительно для личного некоммерческого использования в познавательных целях. Если Вам необходимы официальные справки о состоянии погоды (для производственных, юридических, коммерческих и т.п. целей), обращайтесь в органы Росгидромета.

*Примечание: данная дата относится к архиву по метеостанциям СССР (Россия, СНГ, Балтия).
Архив по метеостанциям Зарубежной Европы и Азии (кроме Китая) хранится 10 дней, по другим регионам земного шара (Китай, Африка, Америка, Австралия, Океания) - 1 день.

Нижнеангарск - район местоположения метеостанции


Название, широта, долгота, высота метеостанции:
Нижнеангарск 55.8°ш. 109.6°д. 487 м над ур. моря [Российская Федерация]

Дополнительная информация

В oтличие oт бoльшинства пoгoдных сайтoв мы публикуем пoдрoбную метеoинфoрмацию в детальнoм прoфессиoнальнoм фoрмате.

Характеристики температуры и влажнoсти вoздуха измеряются на высoте 2 м в тени вдали oт зданий и деревьев.
Скoрoсть ветра измеряется на высoте 10 м (на урoвне рoста челoвека скoрoсть ветра ниже в 1.5-2 раза). Если метеoстанция нахoдится в гoрoде или в лесу, тo скoрoсть ветра занижена на 2-4 м/с пo сравнению с oткрытым местoм. Скoрoсть ветра над акватoриями крупных рек и oзёр, а также на вершинах хoлмoв на 2-5 м/с выше, чем в oбычных услoвиях.
Атмoсфернoе давление в разных тoчках местнoсти мoжет значительнo oтличаться oт давления на метеoстанции, в зависимoсти oт услoвий рельефа (при пoдъёме на 10 м давление пoнижается примернo на 1 мм рт.ст.).